Station 46092 - MBM1 Image indicating link to RSS feed of recent meteorological observations for station 46092


Conditions at 46092 as of
(10:21 am PDT)
1721 GMT on 06/16/2024:
     

Click on the graph icon in the table below to see a time series plot of the last five days of that observation.

5-day plot - Wind Direction Wind Direction (WDIR):WNW ( 300 deg true )
5-day plot - Wind Speed Wind Speed (WSPD): 3.9 kts
5-day plot - Atmospheric Pressure Atmospheric Pressure (PRES):29.94 in
5-day plot - Pressure Tendency Pressure Tendency (PTDY):+0.01 in ( Rising )
5-day plot - Air Temperature Air Temperature (ATMP): 52.5 °F
5-day plot - Water Temperature Water Temperature (WTMP): 52.3 °F
5-day plot - Wind Chill Wind Chill (CHILL): 51.4 °F
5-day plot - Wind Speed at 10 Meters Wind Speed at 10 meters (WSPD10M): 3.9 kts
5-day plot - Wind Speed at 20 Meters Wind Speed at 20 meters (WSPD20M): 3.9 kts
5-day plot -  Wind Speed, Wind Gust and Atmospheric Pressure Combined plot of Wind Speed, Gust, and Air Pressure
Previous observations
TIME
(PDT)
5-day plot - Wind Direction
WDIR
 
5-day plot - Wind Speed
WSPD
kts
5-day plot - Wind Gust
GST
kts
5-day plot - Wave Height
WVHT
ft
5-day plot - Dominant Wave Period
DPD
sec
5-day plot - Average Wave Period
APD
sec
5-day plot - Mean Wave Direction
MWD
 
5-day plot - Atmospheric Pressure
PRES
in
5-day plot - Pressure Tendency
PTDY
in
5-day plot - Air Temperature
ATMP
°F
5-day plot - Water Temperature
WTMP
°F
5-day plot - Dew Point
DEWP
°F
5-day plot - Salinity
SAL
psu
5-day plot - Visibility
VIS
nmi
5-day plot - Tide (above MLLW)
TIDE
ft
2024-06-16 09:21 amWNW 7.8-----29.94+0.02 51.8 52.2----
2024-06-16 08:21 am NW 3.9-----29.94+0.03 50.7 52.0----
2024-06-16 07:21 am N 5.8-----29.93+0.00 52.0 52.0----
2024-06-16 06:21 amWNW 9.7-----29.92-0.01 51.4 52.0----
2024-06-16 05:21 am NW 9.7-----29.92-0.02 52.0 52.0----
2024-06-16 04:21 amWNW 13.6-----29.92-0.03 52.0 51.8----
2024-06-16 03:21 am NW 13.6-----29.93-0.04 51.8 51.8----
2024-06-16 02:21 am NW 15.5-----29.94-0.03 52.0 51.6----
2024-06-16 01:20 amWNW 13.6-----29.96- 52.3 51.6----
2024-06-16 12:20 am NW 17.5-----29.96+0.01 52.5 51.8----
2024-06-15 11:20 pmWNW 21.4-----29.97+0.02 53.1 52.0----
2024-06-15 09:12 pmWNW 17.5-----29.95+0.03 53.4 52.2----
2024-06-15 08:12 pmWNW 21.4-----29.94+0.00 53.8 52.0----
2024-06-15 07:12 pmWNW 21.4-----29.93-0.02 54.1 52.2----
2024-06-15 06:12 pmWNW 23.3-----29.93-0.06 54.3 52.5----
2024-06-15 05:12 pmWNW 23.3-----29.94-0.06 54.3 52.9----
2024-06-15 03:52 pm W 25.3-----29.96-0.06 54.3 53.6----
2024-06-15 03:12 pmWNW 23.3-----29.98-0.05 54.7 53.8----
2024-06-15 02:12 pmWNW 25.3-----30.00-0.04 54.3 53.6----
2024-06-15 01:12 pmWNW 21.4-----30.02-0.03 54.1 53.1----
2024-06-15 12:12 pmWNW 17.5-----30.03-0.02 54.1 53.6----
2024-06-15 11:12 amWNW 17.5-----30.04-0.01 53.8 54.1----
2024-06-15 10:12 amWNW 19.4-----30.05-0.01 53.6 53.6----